Year,Month,Day,Hour,Minute,Value (Times are PST for temperature in C)
2010,07,08,00,00,19.50
2010,07,08,00,01,19.40
2010,07,08,00,02,19.40
2010,07,08,00,03,19.30
2010,07,08,00,04,19.30
2010,07,08,00,05,19.30
2010,07,08,00,06,19.20
2010,07,08,00,07,19.20
2010,07,08,00,08,19.10
2010,07,08,00,09,19.10
2010,07,08,00,10,19.10
2010,07,08,00,11,19.10
2010,07,08,00,12,19.00
2010,07,08,00,13,18.90
2010,07,08,00,14,18.90
2010,07,08,00,15,18.90
2010,07,08,00,16,18.90
2010,07,08,00,17,18.80
2010,07,08,00,18,18.80
2010,07,08,00,19,18.70
2010,07,08,00,20,18.70
2010,07,08,00,21,18.70
2010,07,08,00,22,18.70
2010,07,08,00,23,18.60
2010,07,08,00,24,18.60
2010,07,08,00,25,18.60
2010,07,08,00,26,18.60
2010,07,08,00,27,18.50
2010,07,08,00,28,18.50
2010,07,08,00,29,18.50
2010,07,08,00,30,18.40
2010,07,08,00,31,18.40
2010,07,08,00,32,18.40
2010,07,08,00,33,18.30
2010,07,08,00,34,18.30
2010,07,08,00,35,18.30
2010,07,08,00,36,18.20
2010,07,08,00,37,18.20
2010,07,08,00,38,18.20
2010,07,08,00,39,18.20
2010,07,08,00,40,18.20
2010,07,08,00,41,18.20
2010,07,08,00,42,18.20
2010,07,08,00,43,18.20
2010,07,08,00,44,18.20
2010,07,08,00,45,18.10
2010,07,08,00,46,18.10
2010,07,08,00,47,18.10
2010,07,08,00,48,18.10
2010,07,08,00,49,17.90
2010,07,08,00,50,17.90
2010,07,08,00,51,17.90
2010,07,08,00,52,17.90
2010,07,08,00,53,17.90
2010,07,08,00,54,17.90
2010,07,08,00,55,17.80
2010,07,08,00,56,17.80
2010,07,08,00,57,17.80
2010,07,08,00,58,17.80
2010,07,08,00,59,17.80
2010,07,08,01,00,17.70
2010,07,08,01,01,17.70
2010,07,08,01,02,17.70
2010,07,08,01,03,17.70
2010,07,08,01,04,17.60
2010,07,08,01,05,17.60
2010,07,08,01,06,17.60
2010,07,08,01,07,17.70
2010,07,08,01,08,17.70
2010,07,08,01,09,17.70
2010,07,08,01,10,17.70
2010,07,08,01,11,17.70
2010,07,08,01,12,17.70
2010,07,08,01,13,17.70
2010,07,08,01,14,17.70
2010,07,08,01,15,17.70
2010,07,08,01,16,17.70
2010,07,08,01,17,17.70
2010,07,08,01,18,17.60
2010,07,08,01,19,17.60
2010,07,08,01,20,17.60
2010,07,08,01,21,17.60
2010,07,08,01,22,17.50
2010,07,08,01,23,17.50
2010,07,08,01,24,17.50
2010,07,08,01,25,17.50
2010,07,08,01,26,17.50
2010,07,08,01,27,17.40
2010,07,08,01,28,17.40
2010,07,08,01,29,17.40
2010,07,08,01,30,17.40
2010,07,08,01,31,17.30
2010,07,08,01,32,17.30
2010,07,08,01,33,17.30
2010,07,08,01,34,17.30
2010,07,08,01,35,17.30
2010,07,08,01,36,17.30
2010,07,08,01,37,17.20
2010,07,08,01,38,17.20
2010,07,08,01,39,17.20
2010,07,08,01,40,17.20
2010,07,08,01,41,17.20
2010,07,08,01,42,17.10
2010,07,08,01,43,17.10
2010,07,08,01,44,17.10
2010,07,08,01,45,17.10
2010,07,08,01,46,17.10
2010,07,08,01,47,17.10
2010,07,08,01,48,17.10
2010,07,08,01,49,17.10
2010,07,08,01,50,17.10
2010,07,08,01,51,17.10
2010,07,08,01,52,17.00
2010,07,08,01,53,17.00
2010,07,08,01,54,17.00
2010,07,08,01,55,17.00
2010,07,08,01,56,16.90
2010,07,08,01,57,16.90
2010,07,08,01,58,16.90
2010,07,08,01,59,16.90
2010,07,08,02,00,16.90
2010,07,08,02,01,16.80
2010,07,08,02,02,16.80
2010,07,08,02,03,16.80
2010,07,08,02,04,16.70
2010,07,08,02,05,16.70
2010,07,08,02,06,16.70
2010,07,08,02,07,16.70
2010,07,08,02,08,16.70
2010,07,08,02,09,16.70
2010,07,08,02,10,16.70
2010,07,08,02,11,16.70
2010,07,08,02,12,16.70
2010,07,08,02,13,16.70
2010,07,08,02,14,16.70
2010,07,08,02,15,16.70
2010,07,08,02,16,16.70
2010,07,08,02,17,16.70
2010,07,08,02,18,16.70
2010,07,08,02,19,16.70
2010,07,08,02,20,16.70
2010,07,08,02,21,16.70
2010,07,08,02,22,16.70
2010,07,08,02,23,16.70
2010,07,08,02,24,16.70
2010,07,08,02,25,16.80
2010,07,08,02,26,16.80
2010,07,08,02,27,16.80
2010,07,08,02,28,16.80
2010,07,08,02,29,16.80
2010,07,08,02,30,16.90
2010,07,08,02,31,16.90
2010,07,08,02,32,16.90
2010,07,08,02,33,16.90
2010,07,08,02,34,16.90
2010,07,08,02,35,16.90
2010,07,08,02,36,16.90
2010,07,08,02,37,16.90
2010,07,08,02,38,16.90
2010,07,08,02,39,16.80
2010,07,08,02,40,16.80
2010,07,08,02,41,16.80
2010,07,08,02,42,16.80
2010,07,08,02,43,16.80
2010,07,08,02,44,16.80
2010,07,08,02,45,16.80
2010,07,08,02,46,16.80
2010,07,08,02,47,16.80
2010,07,08,02,48,16.70
2010,07,08,02,49,16.70
2010,07,08,02,50,16.70
2010,07,08,02,51,16.70
2010,07,08,02,52,16.70
2010,07,08,02,53,16.70
2010,07,08,02,54,16.70
2010,07,08,02,55,16.70
2010,07,08,02,56,16.60
2010,07,08,02,57,16.60
2010,07,08,02,58,16.60
2010,07,08,02,59,16.60
2010,07,08,03,00,16.60
2010,07,08,03,01,16.40
2010,07,08,03,02,16.40
2010,07,08,03,03,16.40
2010,07,08,03,04,16.40
2010,07,08,03,05,16.40
2010,07,08,03,06,16.40
2010,07,08,03,07,16.40
2010,07,08,03,08,16.40
2010,07,08,03,09,16.40
2010,07,08,03,10,16.30
2010,07,08,03,11,16.30
2010,07,08,03,12,16.30
2010,07,08,03,13,16.20
2010,07,08,03,14,16.20
2010,07,08,03,15,16.20
2010,07,08,03,16,16.10
2010,07,08,03,17,16.10
2010,07,08,03,18,16.10
2010,07,08,03,19,16.10
2010,07,08,03,20,16.10
2010,07,08,03,21,16.10
2010,07,08,03,22,16.10
2010,07,08,03,23,16.10
2010,07,08,03,24,16.10
2010,07,08,03,25,16.10
2010,07,08,03,26,16.10
2010,07,08,03,27,16.10
2010,07,08,03,28,16.00
2010,07,08,03,29,15.90
2010,07,08,03,30,15.90
2010,07,08,03,31,15.90
2010,07,08,03,32,15.90
2010,07,08,03,33,15.80
2010,07,08,03,34,15.80
2010,07,08,03,35,15.80
2010,07,08,03,36,15.80
2010,07,08,03,37,15.80
2010,07,08,03,38,15.80
2010,07,08,03,39,15.80
2010,07,08,03,40,15.70
2010,07,08,03,41,15.70
2010,07,08,03,42,15.70
2010,07,08,03,43,15.70
2010,07,08,03,44,15.70
2010,07,08,03,45,15.70
2010,07,08,03,46,15.60
2010,07,08,03,47,15.60
2010,07,08,03,48,15.60
2010,07,08,03,49,15.60
2010,07,08,03,50,15.60
2010,07,08,03,51,15.60
2010,07,08,03,52,15.60
2010,07,08,03,53,15.50
2010,07,08,03,54,15.50
2010,07,08,03,55,15.50
2010,07,08,03,56,15.50
2010,07,08,03,57,15.50
2010,07,08,03,58,15.50
2010,07,08,03,59,15.40
2010,07,08,04,00,15.40
2010,07,08,04,01,15.40
2010,07,08,04,02,15.40
2010,07,08,04,03,15.40
2010,07,08,04,04,15.40
2010,07,08,04,05,15.30
2010,07,08,04,06,15.30
2010,07,08,04,07,15.30
2010,07,08,04,08,15.30
2010,07,08,04,09,15.30
2010,07,08,04,10,15.30
2010,07,08,04,11,15.30
2010,07,08,04,12,15.30
2010,07,08,04,13,15.30
2010,07,08,04,14,15.30
2010,07,08,04,15,15.30
2010,07,08,04,16,15.20
2010,07,08,04,17,15.20
2010,07,08,04,18,15.20
2010,07,08,04,19,15.20
2010,07,08,04,20,15.20
2010,07,08,04,21,15.10
2010,07,08,04,22,15.10
2010,07,08,04,23,15.10
2010,07,08,04,24,15.10
2010,07,08,04,25,15.10
2010,07,08,04,26,15.10
2010,07,08,04,27,15.10
2010,07,08,04,28,15.10
2010,07,08,04,29,15.00
2010,07,08,04,30,15.00
2010,07,08,04,31,15.00
2010,07,08,04,32,15.00
2010,07,08,04,33,15.00
2010,07,08,04,34,14.90
2010,07,08,04,35,14.90
2010,07,08,04,36,14.90
2010,07,08,04,37,14.90
2010,07,08,04,38,14.90
2010,07,08,04,39,14.90
2010,07,08,04,40,14.90
2010,07,08,04,41,14.90
2010,07,08,04,42,14.90
2010,07,08,04,43,14.90
2010,07,08,04,44,14.80
2010,07,08,04,45,14.80
2010,07,08,04,46,14.80
2010,07,08,04,47,14.80
2010,07,08,04,48,14.80
2010,07,08,04,49,14.80
2010,07,08,04,50,14.80
2010,07,08,04,51,14.80
2010,07,08,04,52,14.80
2010,07,08,04,53,14.80
2010,07,08,04,54,14.80
2010,07,08,04,55,14.80
2010,07,08,04,56,14.80
2010,07,08,04,57,14.80
2010,07,08,04,58,14.80
2010,07,08,04,59,14.80
2010,07,08,05,00,14.80
2010,07,08,05,01,14.80
2010,07,08,05,02,14.80
2010,07,08,05,03,14.80
2010,07,08,05,04,14.80
2010,07,08,05,05,14.80
2010,07,08,05,06,14.80
2010,07,08,05,07,14.80
2010,07,08,05,08,14.80
2010,07,08,05,09,14.80
2010,07,08,05,10,14.80
2010,07,08,05,11,14.80
2010,07,08,05,12,14.80
2010,07,08,05,13,14.80
2010,07,08,05,14,14.80
2010,07,08,05,15,14.80
2010,07,08,05,16,14.80
2010,07,08,05,17,14.90
2010,07,08,05,18,14.80
2010,07,08,05,19,14.80
2010,07,08,05,20,14.80
2010,07,08,05,21,14.80
2010,07,08,05,22,14.80
2010,07,08,05,23,14.80
2010,07,08,05,24,14.80
2010,07,08,05,25,14.80
2010,07,08,05,26,14.80
2010,07,08,05,27,14.80
2010,07,08,05,28,14.80
2010,07,08,05,29,14.80
2010,07,08,05,30,14.80
2010,07,08,05,31,14.80
2010,07,08,05,32,14.90
2010,07,08,05,33,14.90
2010,07,08,05,34,15.00
2010,07,08,05,35,15.00
2010,07,08,05,36,15.00
2010,07,08,05,37,15.00
2010,07,08,05,38,15.00
2010,07,08,05,39,15.00
2010,07,08,05,40,15.00
2010,07,08,05,41,15.00
2010,07,08,05,42,15.00
2010,07,08,05,43,15.00
2010,07,08,05,44,15.00
2010,07,08,05,45,14.90
2010,07,08,05,46,14.90
2010,07,08,05,47,14.90
2010,07,08,05,48,14.90
2010,07,08,05,49,14.90
2010,07,08,05,50,14.90
2010,07,08,05,51,14.90
2010,07,08,05,52,14.90
2010,07,08,05,53,14.90
2010,07,08,05,54,14.90
2010,07,08,05,55,14.90
2010,07,08,05,56,14.90
2010,07,08,05,57,14.80
2010,07,08,05,58,14.90
2010,07,08,05,59,14.90
2010,07,08,06,00,14.90
2010,07,08,06,01,14.90
2010,07,08,06,02,14.90
2010,07,08,06,03,14.90
2010,07,08,06,04,14.90
2010,07,08,06,05,14.90
2010,07,08,06,06,14.90
2010,07,08,06,07,14.90
2010,07,08,06,08,14.90
2010,07,08,06,09,14.90
2010,07,08,06,10,15.00
2010,07,08,06,11,15.00
2010,07,08,06,12,15.00
2010,07,08,06,13,15.00
2010,07,08,06,14,15.00
2010,07,08,06,15,15.00
2010,07,08,06,16,15.10
2010,07,08,06,17,15.10
2010,07,08,06,18,15.10
2010,07,08,06,19,15.20
2010,07,08,06,20,15.20
2010,07,08,06,21,15.30
2010,07,08,06,22,15.30
2010,07,08,06,23,15.30
2010,07,08,06,24,15.30
2010,07,08,06,25,15.40
2010,07,08,06,26,15.40
2010,07,08,06,27,15.50
2010,07,08,06,28,15.50
2010,07,08,06,29,15.60
2010,07,08,06,30,15.70
2010,07,08,06,31,15.70
2010,07,08,06,32,15.80
2010,07,08,06,33,15.80
2010,07,08,06,34,15.90
2010,07,08,06,35,16.00
2010,07,08,06,36,16.10
2010,07,08,06,37,16.20
2010,07,08,06,38,16.30
2010,07,08,06,39,16.30
2010,07,08,06,40,16.40
2010,07,08,06,41,16.50
2010,07,08,06,42,16.60
2010,07,08,06,43,16.70
2010,07,08,06,44,16.80
2010,07,08,06,45,16.90
2010,07,08,06,46,16.90
2010,07,08,06,47,17.00
2010,07,08,06,48,17.10
2010,07,08,06,49,17.20
2010,07,08,06,50,17.30
2010,07,08,06,51,17.30
2010,07,08,06,52,17.40
2010,07,08,06,53,17.50
2010,07,08,06,54,17.60
2010,07,08,06,55,17.70
2010,07,08,06,56,17.80
2010,07,08,06,57,17.80
2010,07,08,06,58,17.90
2010,07,08,06,59,17.90
2010,07,08,07,00,18.00
2010,07,08,07,01,18.10
2010,07,08,07,02,18.10
2010,07,08,07,03,18.20
2010,07,08,07,04,18.20
2010,07,08,07,05,18.20
2010,07,08,07,06,18.20
2010,07,08,07,07,18.20
2010,07,08,07,08,18.30
2010,07,08,07,09,18.30
2010,07,08,07,10,18.40
2010,07,08,07,11,18.50
2010,07,08,07,12,18.60
2010,07,08,07,13,18.60
2010,07,08,07,14,18.70
2010,07,08,07,15,18.80
2010,07,08,07,16,18.90
2010,07,08,07,17,18.90
2010,07,08,07,18,19.10
2010,07,08,07,19,19.10
2010,07,08,07,20,19.20
2010,07,08,07,21,19.30
2010,07,08,07,22,19.40
2010,07,08,07,23,19.50
2010,07,08,07,24,19.50
2010,07,08,07,25,19.60
2010,07,08,07,26,19.60
2010,07,08,07,27,19.70
2010,07,08,07,28,19.80
2010,07,08,07,29,19.80
2010,07,08,07,30,19.90
2010,07,08,07,31,19.90
2010,07,08,07,32,20.00
2010,07,08,07,33,20.10
2010,07,08,07,34,20.10
2010,07,08,07,35,20.20
2010,07,08,07,36,20.20
2010,07,08,07,37,20.30
2010,07,08,07,38,20.30
2010,07,08,07,39,20.40
2010,07,08,07,40,20.50
2010,07,08,07,41,20.50
2010,07,08,07,42,20.60
2010,07,08,07,43,20.70
2010,07,08,07,44,20.70
2010,07,08,07,45,20.80
2010,07,08,07,46,20.90
2010,07,08,07,47,20.90
2010,07,08,07,48,21.00
2010,07,08,07,49,21.00
2010,07,08,07,50,21.10
2010,07,08,07,51,21.10
2010,07,08,07,52,21.20
2010,07,08,07,53,21.30
2010,07,08,07,54,21.30
2010,07,08,07,55,21.40
2010,07,08,07,56,21.60
2010,07,08,07,57,21.60
2010,07,08,07,58,21.80
2010,07,08,07,59,21.90
2010,07,08,08,00,22.10
2010,07,08,08,01,22.20
2010,07,08,08,02,22.30
2010,07,08,08,03,22.30
2010,07,08,08,04,22.50
2010,07,08,08,05,22.60
2010,07,08,08,06,22.60
2010,07,08,08,07,22.70
2010,07,08,08,08,22.80
2010,07,08,08,09,22.90
2010,07,08,08,10,23.10
2010,07,08,08,11,23.20
2010,07,08,08,12,23.20
2010,07,08,08,13,23.30
2010,07,08,08,14,23.30
2010,07,08,08,15,23.40
2010,07,08,08,16,23.60
2010,07,08,08,17,23.70
2010,07,08,08,18,23.80
2010,07,08,08,19,23.90
2010,07,08,08,20,24.00
2010,07,08,08,21,24.10
2010,07,08,08,22,24.10
2010,07,08,08,23,24.10
2010,07,08,08,24,24.10
2010,07,08,08,25,24.20
2010,07,08,08,26,24.20
2010,07,08,08,27,24.30
2010,07,08,08,28,24.30
2010,07,08,08,29,24.40
2010,07,08,08,30,24.50
2010,07,08,08,31,24.60
2010,07,08,08,32,24.70
2010,07,08,08,33,24.70
2010,07,08,08,34,24.80
2010,07,08,08,35,24.90
2010,07,08,08,36,25.00
2010,07,08,08,37,25.10
2010,07,08,08,38,25.20
2010,07,08,08,39,25.30
2010,07,08,08,40,25.40
2010,07,08,08,41,25.40
2010,07,08,08,42,25.50
2010,07,08,08,43,25.60
2010,07,08,08,44,25.70
2010,07,08,08,45,25.80
2010,07,08,08,46,25.90
2010,07,08,08,47,26.00
2010,07,08,08,48,26.00
2010,07,08,08,49,26.10
2010,07,08,08,50,26.10
2010,07,08,08,51,26.20
2010,07,08,08,52,26.20
2010,07,08,08,53,26.20
2010,07,08,08,54,26.20
2010,07,08,08,55,26.20
2010,07,08,08,56,26.30
2010,07,08,08,57,26.30
2010,07,08,08,58,26.40
2010,07,08,08,59,26.40
2010,07,08,09,00,26.60
2010,07,08,09,01,26.60
2010,07,08,09,02,26.60
2010,07,08,09,03,26.70
2010,07,08,09,04,26.70
2010,07,08,09,05,26.80
2010,07,08,09,06,26.70
2010,07,08,09,07,26.80
2010,07,08,09,08,26.80
2010,07,08,09,09,26.80
2010,07,08,09,10,26.80
2010,07,08,09,11,26.80
2010,07,08,09,12,26.90
2010,07,08,09,13,26.90
2010,07,08,09,14,27.00
2010,07,08,09,15,27.10
2010,07,08,09,16,27.10
2010,07,08,09,17,27.20
2010,07,08,09,18,27.20
2010,07,08,09,19,27.20
2010,07,08,09,20,27.20
2010,07,08,09,21,27.30
2010,07,08,09,22,27.30
2010,07,08,09,23,27.30
2010,07,08,09,24,27.30
2010,07,08,09,25,27.40
2010,07,08,09,26,27.50
2010,07,08,09,27,27.60
2010,07,08,09,28,27.60
2010,07,08,09,29,27.70
2010,07,08,09,30,27.80
2010,07,08,09,31,27.90
2010,07,08,09,32,27.90
2010,07,08,09,33,27.90
2010,07,08,09,34,27.90
2010,07,08,09,35,28.00
2010,07,08,09,36,28.00
2010,07,08,09,37,28.00
2010,07,08,09,38,28.10
2010,07,08,09,39,28.10
2010,07,08,09,40,28.20
2010,07,08,09,41,28.20
2010,07,08,09,42,28.20
2010,07,08,09,43,28.20
2010,07,08,09,44,28.20
2010,07,08,09,45,28.20
2010,07,08,09,46,28.20
2010,07,08,09,47,28.20
2010,07,08,09,48,28.20
2010,07,08,09,49,28.10
2010,07,08,09,50,28.10
2010,07,08,09,51,28.10
2010,07,08,09,52,28.00
2010,07,08,09,53,28.00
2010,07,08,09,54,27.90
2010,07,08,09,55,27.90
2010,07,08,09,56,28.00
2010,07,08,09,57,28.00
2010,07,08,09,58,28.10
2010,07,08,09,59,28.10
2010,07,08,10,00,28.10
2010,07,08,10,01,28.10
2010,07,08,10,02,28.00
2010,07,08,10,03,28.00
2010,07,08,10,04,28.00
2010,07,08,10,05,28.00
2010,07,08,10,06,28.00
2010,07,08,10,07,28.00
2010,07,08,10,08,28.00
2010,07,08,10,09,28.00
2010,07,08,10,10,28.00
2010,07,08,10,11,28.00
2010,07,08,10,12,27.90
2010,07,08,10,13,27.90
2010,07,08,10,14,27.90
2010,07,08,10,15,27.90
2010,07,08,10,16,27.90
2010,07,08,10,17,27.90
2010,07,08,10,18,27.90
2010,07,08,10,19,28.00
2010,07,08,10,20,28.00
2010,07,08,10,21,28.10
2010,07,08,10,22,28.20
2010,07,08,10,23,28.30
2010,07,08,10,24,28.30
2010,07,08,10,25,28.30
2010,07,08,10,26,28.40
2010,07,08,10,27,28.40
2010,07,08,10,28,28.40
2010,07,08,10,29,28.40
2010,07,08,10,30,28.40
2010,07,08,10,31,28.50
2010,07,08,10,32,28.60
2010,07,08,10,33,28.60
2010,07,08,10,34,28.70
2010,07,08,10,35,28.70
2010,07,08,10,36,28.70
2010,07,08,10,37,28.70
2010,07,08,10,38,28.80
2010,07,08,10,39,28.80
2010,07,08,10,40,28.80
2010,07,08,10,41,28.90
2010,07,08,10,42,28.90
2010,07,08,10,43,28.90
2010,07,08,10,44,28.80
2010,07,08,10,45,28.80
2010,07,08,10,46,28.80
2010,07,08,10,47,28.70
2010,07,08,10,48,28.70
2010,07,08,10,49,28.80
2010,07,08,10,50,28.80
2010,07,08,10,51,28.90
2010,07,08,10,52,28.90
2010,07,08,10,53,29.00
2010,07,08,10,54,29.10
2010,07,08,10,55,29.20
2010,07,08,10,56,29.20
2010,07,08,10,57,29.30
2010,07,08,10,58,29.30
2010,07,08,10,59,29.20
2010,07,08,11,00,29.10
2010,07,08,11,01,29.10
2010,07,08,11,02,29.10
2010,07,08,11,03,29.20
2010,07,08,11,04,29.30
2010,07,08,11,05,29.30
2010,07,08,11,06,29.30
2010,07,08,11,07,29.30
2010,07,08,11,08,29.40
2010,07,08,11,09,29.40
2010,07,08,11,10,29.40
2010,07,08,11,11,29.40
2010,07,08,11,12,29.50
2010,07,08,11,13,29.50
2010,07,08,11,14,29.60
2010,07,08,11,15,29.60
2010,07,08,11,16,29.70
2010,07,08,11,17,29.70
2010,07,08,11,18,29.70
2010,07,08,11,19,29.70
2010,07,08,11,20,29.60
2010,07,08,11,21,29.60
2010,07,08,11,22,29.70
2010,07,08,11,23,29.70
2010,07,08,11,24,29.80
2010,07,08,11,25,29.80
2010,07,08,11,26,29.90
2010,07,08,11,27,29.90
2010,07,08,11,28,30.10
2010,07,08,11,29,30.10
2010,07,08,11,30,30.10
2010,07,08,11,31,30.10
2010,07,08,11,32,30.20
2010,07,08,11,33,30.20
2010,07,08,11,34,30.20
2010,07,08,11,35,30.20
2010,07,08,11,36,30.30
2010,07,08,11,37,30.30
2010,07,08,11,38,30.30
2010,07,08,11,39,30.40
2010,07,08,11,40,30.30
2010,07,08,11,41,30.30
2010,07,08,11,42,30.20
2010,07,08,11,43,30.20
2010,07,08,11,44,30.20
2010,07,08,11,45,30.20
2010,07,08,11,46,30.10
2010,07,08,11,47,30.10
2010,07,08,11,48,29.90
2010,07,08,11,49,29.80
2010,07,08,11,50,29.80
2010,07,08,11,51,29.80
2010,07,08,11,52,29.90
2010,07,08,11,53,29.90
2010,07,08,11,54,30.00
2010,07,08,11,55,29.90
2010,07,08,11,56,29.90
2010,07,08,11,57,29.90
2010,07,08,11,58,29.90
2010,07,08,11,59,30.00
2010,07,08,12,00,30.10
2010,07,08,12,01,30.20
2010,07,08,12,02,30.20
2010,07,08,12,03,30.30
2010,07,08,12,04,30.40
2010,07,08,12,05,30.50
2010,07,08,12,06,30.60
2010,07,08,12,07,30.70
2010,07,08,12,08,30.70
2010,07,08,12,09,30.70
2010,07,08,12,10,30.60
2010,07,08,12,11,30.60
2010,07,08,12,12,30.60
2010,07,08,12,13,30.40
2010,07,08,12,14,30.40
2010,07,08,12,15,30.30
2010,07,08,12,16,30.30
2010,07,08,12,17,30.40
2010,07,08,12,18,30.40
2010,07,08,12,19,30.30
2010,07,08,12,20,30.20
2010,07,08,12,21,30.20
2010,07,08,12,22,30.30
2010,07,08,12,23,30.30
2010,07,08,12,24,30.40
2010,07,08,12,25,30.60
2010,07,08,12,26,30.80
2010,07,08,12,27,30.80
2010,07,08,12,28,30.80
2010,07,08,12,29,30.90
2010,07,08,12,30,31.00
2010,07,08,12,31,31.00
2010,07,08,12,32,31.10
2010,07,08,12,33,31.20
2010,07,08,12,34,31.30
2010,07,08,12,35,31.30
2010,07,08,12,36,31.30
2010,07,08,12,37,31.30
2010,07,08,12,38,31.20
2010,07,08,12,39,31.10
2010,07,08,12,40,31.00
2010,07,08,12,41,30.90
2010,07,08,12,42,30.80
2010,07,08,12,43,30.70
2010,07,08,12,44,30.70
2010,07,08,12,45,30.70
2010,07,08,12,46,30.80
2010,07,08,12,47,30.80
2010,07,08,12,48,30.80
2010,07,08,12,49,30.90
2010,07,08,12,50,30.90
2010,07,08,12,51,30.80
2010,07,08,12,52,30.70
2010,07,08,12,53,30.70
2010,07,08,12,54,30.60
2010,07,08,12,55,30.50
2010,07,08,12,56,30.30
2010,07,08,12,57,30.30
2010,07,08,12,58,30.30
2010,07,08,12,59,30.20
2010,07,08,13,00,30.10
2010,07,08,13,01,30.10
2010,07,08,13,02,30.10
2010,07,08,13,03,30.30
2010,07,08,13,04,30.40
2010,07,08,13,05,30.60
2010,07,08,13,06,30.70
2010,07,08,13,07,30.90
2010,07,08,13,08,31.00
2010,07,08,13,09,30.90
2010,07,08,13,10,30.90
2010,07,08,13,11,30.90
2010,07,08,13,12,30.90
2010,07,08,13,13,30.90
2010,07,08,13,14,30.90
2010,07,08,13,15,31.00
2010,07,08,13,16,31.10
2010,07,08,13,17,31.10
2010,07,08,13,18,31.10
2010,07,08,13,19,31.10
2010,07,08,13,20,31.20
2010,07,08,13,21,31.20
2010,07,08,13,22,31.30
2010,07,08,13,23,31.30
2010,07,08,13,24,31.30
2010,07,08,13,25,31.30
2010,07,08,13,26,31.30
2010,07,08,13,27,31.30
2010,07,08,13,28,31.30
2010,07,08,13,29,31.20
2010,07,08,13,30,31.00
2010,07,08,13,31,30.90
2010,07,08,13,32,30.80
2010,07,08,13,33,30.90
2010,07,08,13,34,30.80
2010,07,08,13,35,30.70
2010,07,08,13,36,30.70
2010,07,08,13,37,30.70
2010,07,08,13,38,30.70
2010,07,08,13,39,30.60
2010,07,08,13,40,30.60
2010,07,08,13,41,30.40
2010,07,08,13,42,30.30
2010,07,08,13,43,30.30
2010,07,08,13,44,30.30
2010,07,08,13,45,30.30
2010,07,08,13,46,30.30
2010,07,08,13,47,30.30
2010,07,08,13,48,30.40
2010,07,08,13,49,30.30
2010,07,08,13,50,30.20
2010,07,08,13,51,30.20
2010,07,08,13,52,30.20
2010,07,08,13,53,30.20
2010,07,08,13,54,30.20
2010,07,08,13,55,30.30
2010,07,08,13,56,30.30
2010,07,08,13,57,30.30
2010,07,08,13,58,30.30
2010,07,08,13,59,30.40
2010,07,08,14,00,30.30
2010,07,08,14,01,30.10
2010,07,08,14,02,30.00
2010,07,08,14,03,29.80
2010,07,08,14,04,29.70
2010,07,08,14,05,29.60
2010,07,08,14,06,29.60
2010,07,08,14,07,29.60
2010,07,08,14,08,29.60
2010,07,08,14,09,29.60
2010,07,08,14,10,29.60
2010,07,08,14,11,29.60
2010,07,08,14,12,29.70
2010,07,08,14,13,29.80
2010,07,08,14,14,29.90
2010,07,08,14,15,30.00
2010,07,08,14,16,30.10
2010,07,08,14,17,30.20
2010,07,08,14,18,30.20
2010,07,08,14,19,30.30
2010,07,08,14,20,30.40
2010,07,08,14,21,30.50
2010,07,08,14,22,30.60
2010,07,08,14,23,30.40
2010,07,08,14,24,30.30
2010,07,08,14,25,30.20
2010,07,08,14,26,30.20
2010,07,08,14,27,30.20
2010,07,08,14,28,30.10
2010,07,08,14,29,30.10
2010,07,08,14,30,30.00
2010,07,08,14,31,29.90
2010,07,08,14,32,29.90
2010,07,08,14,33,30.00
2010,07,08,14,34,30.10
2010,07,08,14,35,30.20
2010,07,08,14,36,30.20
2010,07,08,14,37,30.20
2010,07,08,14,38,30.20
2010,07,08,14,39,30.30
2010,07,08,14,40,30.50
2010,07,08,14,41,30.60
2010,07,08,14,42,30.60
2010,07,08,14,43,30.50
2010,07,08,14,44,30.40
2010,07,08,14,45,30.40
2010,07,08,14,46,30.30
2010,07,08,14,47,30.30
2010,07,08,14,48,30.30
2010,07,08,14,49,30.30
2010,07,08,14,50,30.20
2010,07,08,14,51,30.20
2010,07,08,14,52,30.10
2010,07,08,14,53,29.90
2010,07,08,14,54,29.80
2010,07,08,14,55,29.60
2010,07,08,14,56,29.40
2010,07,08,14,57,29.20
2010,07,08,14,58,29.00
2010,07,08,14,59,28.90
2010,07,08,15,00,28.80
2010,07,08,15,01,28.80
2010,07,08,15,02,28.70
2010,07,08,15,03,28.70
2010,07,08,15,04,28.70
2010,07,08,15,05,28.70
2010,07,08,15,06,28.60
2010,07,08,15,07,28.60
2010,07,08,15,08,28.60
2010,07,08,15,09,28.60
2010,07,08,15,10,28.60
2010,07,08,15,11,28.70
2010,07,08,15,12,28.80
2010,07,08,15,13,28.90
2010,07,08,15,14,28.90
2010,07,08,15,15,28.90
2010,07,08,15,16,29.10
2010,07,08,15,17,29.10
2010,07,08,15,18,29.10
2010,07,08,15,19,29.10
2010,07,08,15,20,29.10
2010,07,08,15,21,29.20
2010,07,08,15,22,29.20
2010,07,08,15,23,29.30
2010,07,08,15,24,29.50
2010,07,08,15,25,29.60
2010,07,08,15,26,29.60
2010,07,08,15,27,29.60
2010,07,08,15,28,29.70
2010,07,08,15,29,29.70
2010,07,08,15,30,29.70
2010,07,08,15,31,29.80
2010,07,08,15,32,29.80
2010,07,08,15,33,29.90
2010,07,08,15,34,30.00
2010,07,08,15,35,30.10
2010,07,08,15,36,30.20
2010,07,08,15,37,30.30
2010,07,08,15,38,30.30
2010,07,08,15,39,30.40
2010,07,08,15,40,30.40
2010,07,08,15,41,30.30
2010,07,08,15,42,30.30
2010,07,08,15,43,30.30
2010,07,08,15,44,30.40
2010,07,08,15,45,30.50
2010,07,08,15,46,30.60
2010,07,08,15,47,30.60
2010,07,08,15,48,30.70
2010,07,08,15,49,30.80
2010,07,08,15,50,30.80
2010,07,08,15,51,30.90
2010,07,08,15,52,30.90
2010,07,08,15,53,30.90
2010,07,08,15,54,30.90
2010,07,08,15,55,30.80
2010,07,08,15,56,30.80
2010,07,08,15,57,30.80
2010,07,08,15,58,30.80
2010,07,08,15,59,30.80
2010,07,08,16,00,30.80
2010,07,08,16,01,30.80
2010,07,08,16,02,30.90
2010,07,08,16,03,30.90
2010,07,08,16,04,30.80
2010,07,08,16,05,30.80
2010,07,08,16,06,30.90
2010,07,08,16,07,30.90
2010,07,08,16,08,31.00
2010,07,08,16,09,31.10
2010,07,08,16,10,31.20
2010,07,08,16,11,31.20
2010,07,08,16,12,31.20
2010,07,08,16,13,31.20
2010,07,08,16,14,31.30
2010,07,08,16,15,31.30
2010,07,08,16,16,31.30
2010,07,08,16,17,31.30
2010,07,08,16,18,31.30
2010,07,08,16,19,31.40
2010,07,08,16,20,31.50
2010,07,08,16,21,31.60
2010,07,08,16,22,31.70
2010,07,08,16,23,31.90
2010,07,08,16,24,31.90
2010,07,08,16,25,31.90
2010,07,08,16,26,32.10
2010,07,08,16,27,32.00
2010,07,08,16,28,31.90
2010,07,08,16,29,31.90
2010,07,08,16,30,31.90
2010,07,08,16,31,31.90
2010,07,08,16,32,31.90
2010,07,08,16,33,31.90
2010,07,08,16,34,31.90
2010,07,08,16,35,31.80
2010,07,08,16,36,31.70
2010,07,08,16,37,31.70
2010,07,08,16,38,31.80
2010,07,08,16,39,31.80
2010,07,08,16,40,31.80
2010,07,08,16,41,31.80
2010,07,08,16,42,31.70
2010,07,08,16,43,31.80
2010,07,08,16,44,31.90
2010,07,08,16,45,31.90
2010,07,08,16,46,31.90
2010,07,08,16,47,31.90
2010,07,08,16,48,31.90
2010,07,08,16,49,31.90
2010,07,08,16,50,31.90
2010,07,08,16,51,31.90
2010,07,08,16,52,32.00
2010,07,08,16,53,32.10
2010,07,08,16,54,32.10
2010,07,08,16,55,32.20
2010,07,08,16,56,32.20
2010,07,08,16,57,32.30
2010,07,08,16,58,32.30
2010,07,08,16,59,32.40
2010,07,08,17,00,32.40
2010,07,08,17,01,32.40
2010,07,08,17,02,32.40
2010,07,08,17,03,32.50
2010,07,08,17,04,32.60
2010,07,08,17,05,32.80
2010,07,08,17,06,32.70
2010,07,08,17,07,32.60
2010,07,08,17,08,32.50
2010,07,08,17,09,32.40
2010,07,08,17,10,32.40
2010,07,08,17,11,32.40
2010,07,08,17,12,32.40
2010,07,08,17,13,32.50
2010,07,08,17,14,32.50
2010,07,08,17,15,32.50
2010,07,08,17,16,32.60
2010,07,08,17,17,32.60
2010,07,08,17,18,32.60
2010,07,08,17,19,32.60